FW9262 Weather Reports


Display with metric or nautical units.
time (UTC)temp
F
wind
direction
speed
MPH
gust
MPH
rain 1hr
in
rain 24hr
in
rain mn
in
humidity
%
barometer
mb
20260904205631 78 351 4.0 4.0 0.00 0.00 0.00 65 1016.0
20260904205127 78 234 4.0 6.0 0.00 0.00 0.00 65 1016.0
20260904204622 78 327 2.0 8.0 0.00 0.00 0.00 67 1016.0
20260904204119 78 305 2.0 6.0 0.00 0.00 0.00 66 1015.6
20260904203614 79 301 1.0 4.0 0.00 0.00 0.00 66 1015.6
20260904203111 78 188 2.0 2.0 0.00 0.00 0.00 67 1016.0
20260904202606 77 246 3.0 4.0 0.00 0.00 0.00 67 1016.0
20260904202103 77 250 5.0 8.0 0.00 0.00 0.00 68 1016.0
20260904201602 77 235 4.0 7.0 0.00 0.00 0.00 67 1016.0
20260904201057 78 289 2.0 6.0 0.00 0.00 0.00 66 1016.0
20260904200556 78 301 4.0 8.0 0.00 0.00 0.00 67 1016.0
20260904200051 78 315 2.0 7.0 0.00 0.00 0.00 65 1016.0
20260904195550 77 330 1.0 7.0 0.00 0.00 0.00 66 1016.3
20260904195044 78 305 4.0 6.0 0.00 0.00 0.00 65 1016.0
20260904194538 79 272 3.0 8.0 0.00 0.00 0.00 64 1016.0
20260904194033 78 299 3.0 4.0 0.00 0.00 0.00 65 1016.0
20260904193528 77 229 2.0 7.0 0.00 0.00 0.00 66 1016.3
20260904193025 78 172 3.0 6.0 0.00 0.00 0.00 66 1016.3
20260904192524 78 281 1.0 2.0 0.00 0.00 0.00 65 1016.3
20260904192020 78 21 1.0 4.0 0.00 0.00 0.00 64 1016.3
20260904191516 78 283 1.0 6.0 0.00 0.00 0.00 64 1016.3
20260904191013 78 214 2.0 4.0 0.00 0.00 0.00 64 1016.6
20260904190508 79 293 1.0 2.0 0.00 0.00 0.00 63 1016.6
20260904190004 81 273 4.0 6.0 0.00 0.00 0.00 59 1016.6
20260904185500 79 315 3.0 4.0 0.00 0.00 0.00 63 1017.0
20260904184955 78 273 1.0 3.0 0.00 0.00 0.00 62 1016.6
20260904184454 79 262 4.0 6.0 0.00 0.00 0.00 59 1016.6
20260904183950 79 324 2.0 3.0 0.00 0.00 0.00 61 1016.6
20260904183445 80 251 4.0 6.0 0.00 0.00 0.00 59 1017.0
20260904182940 80 348 2.0 4.0 0.00 0.00 0.00 59 1017.0
20260904182436 81 318 0.0 2.0 0.00 0.00 0.00 60 1016.6
20260904181936 80 136 2.0 3.0 0.00 0.00 0.00 59 1016.6
20260904181431 78 341 1.0 3.0 0.00 0.00 0.00 63 1016.6
20260904180926 78 308 2.0 2.0 0.00 0.00 0.00 63 1017.0
20260904180421 77 210 1.0 3.0 0.00 0.00 0.00 63 1017.0
20260904175921 76 248 2.0 3.0 0.00 0.00 0.00 65 1017.0
20260904175419 76 282 1.0 4.0 0.00 0.00 0.00 66 1017.0
20260904174914 76 260 2.0 6.0 0.00 0.00 0.00 65 1017.0
20260904174409 76 211 1.0 3.0 0.00 0.00 0.00 67 1017.0
20260904173906 76 263 4.0 4.0 0.00 0.00 0.00 66 1017.0
20260904173401 75 329 2.0 3.0 0.00 0.00 0.00 69 1017.0
20260904172856 74 245 2.0 2.0 0.00 0.00 0.00 70 1016.6
20260904172356 74 274 2.0 3.0 0.00 0.00 0.00 70 1017.0
20260904171851 75 281 3.0 4.0 0.00 0.00 0.00 69 1016.6
20260904171346 77 267 1.0 6.0 0.00 0.00 0.00 68 1016.6
20260904170842 77 271 0.0 3.0 0.00 0.00 0.00 68 1016.6
20260904170338 77 260 2.0 6.0 0.00 0.00 0.00 67 1016.6
20260904165833 76 342 0.0 0.0 0.00 0.00 0.00 66 1016.6
20260904165331 74 345 0.0 1.0 0.00 0.00 0.00 69 1016.6
20260904164827 76 338 1.0 3.0 0.00 0.00 0.00 67 1016.3
20260904164321 76 295 1.0 2.0 0.00 0.00 0.00 66 1016.6
20260904163817 76 272 1.0 3.0 0.00 0.00 0.00 66 1016.6
20260904163312 76 86 2.0 3.0 0.00 0.00 0.00 64 1016.6
20260904162811 76 76 1.0 2.0 0.00 0.00 0.00 66 1016.3
20260904162307 75 4 1.0 2.0 0.00 0.00 0.00 66 1016.3
20260904161802 74 347 0.0 2.0 0.00 0.00 0.00 68 1016.3
20260904161302 72 11 0.0 2.0 0.00 0.00 0.00 73 1016.3
20260904160757 73 201 1.0 2.0 0.00 0.00 0.00 72 1016.3
20260904160252 73 351 0.0 0.0 0.00 0.00 0.00 73 1016.3
20260904155747 73 350 1.0 3.0 0.00 0.00 0.00 73 1016.3
20260904155247 74 1 1.0 2.0 0.00 0.00 0.00 72 1016.3
20260904154745 73 346 0.0 3.0 0.00 0.00 0.00 74 1016.3
20260904154240 74 340 1.0 2.0 0.00 0.00 0.00 72 1016.3
20260904153736 75 0 1.0 3.0 0.00 0.00 0.00 73 1016.0
20260904153231 75 67 2.0 2.0 0.00 0.00 0.00 72 1016.3
20260904152727 74 352 1.0 2.0 0.00 0.00 0.00 72 1016.3
20260904152222 73 1 1.0 3.0 0.00 0.00 0.00 75 1016.3
20260904151717 72 46 1.0 2.0 0.00 0.00 0.00 77 1016.3
20260904151216 72 48 0.0 1.0 0.00 0.00 0.00 76 1016.3
20260904150712 72 63 1.0 3.0 0.00 0.00 0.00 76 1016.3
20260904150207 72 12 0.0 2.0 0.00 0.00 0.00 76 1016.0
20260904145705 72 32 1.0 2.0 0.00 0.00 0.00 76 1016.3
20260904145201 72 345 0.0 1.0 0.00 0.00 0.00 77 1016.0
20260904144656 71 8 2.0 2.0 0.00 0.00 0.00 78 1016.0
20260904144152 70 356 0.0 0.0 0.00 0.00 0.00 80 1016.0
20260904143647 70 8 0.0 0.0 0.00 0.00 0.00 81 1016.0
20260904143144 69 358 0.0 0.0 0.00 0.00 0.00 81 1016.0
20260904142640 69 358 0.0 1.0 0.00 0.00 0.00 82 1016.0
20260904142136 68 347 0.0 1.0 0.00 0.00 0.00 84 1015.6
20260904141630 68 15 0.0 0.0 0.00 0.00 0.00 88 1015.6
20260904141126 67 349 0.0 0.0 0.00 0.00 0.00 90 1015.6
20260904140621 66 350 0.0 0.0 0.00 0.00 0.00 92 1015.6
20260904140121 65 358 0.0 0.0 0.00 0.00 0.00 92 1015.6
20260904135615 64 346 0.0 0.0 0.00 0.00 0.00 92 1015.6
20260904135111 64 344 0.0 0.0 0.00 0.00 0.00 92 1015.3
20260904134606 64 348 0.0 0.0 0.00 0.00 0.00 92 1015.3
20260904134100 64 345 0.0 0.0 0.00 0.00 0.00 92 1015.3
20260904133555 63 343 0.0 0.0 0.00 0.00 0.00 92 1015.3
20260904133051 63 343 0.0 0.0 0.00 0.00 0.00 92 1015.3
20260904132550 63 337 0.0 0.0 0.00 0.00 0.00 92 1014.9
20260904132045 63 338 0.0 0.0 0.00 0.00 0.00 92 1015.3
20260904131545 63 337 0.0 0.0 0.00 0.00 0.00 92 1015.3
20260904131041 63 0 0.0 1.0 0.00 0.00 0.00 92 1015.3
20260904130540 63 343 0.0 0.0 0.00 0.00 0.00 92 1014.9
20260904130035 63 342 0.0 0.0 0.00 0.00 0.00 92 1015.3
20260904125532 63 342 0.0 0.0 0.00 0.00 0.00 92 1015.3
20260904125026 63 334 0.0 0.0 0.00 0.00 0.00 92 1015.3
20260904124522 63 330 0.0 0.0 0.00 0.00 0.00 92 1015.3
20260904124017 63 334 0.0 0.0 0.00 0.00 0.00 92 1015.3
20260904123517 63 334 0.0 0.0 0.00 0.00 0.00 92 1014.9
20260904123013 63 338 0.0 0.0 0.00 0.00 0.00 92 1015.3
20260904122507 63 339 0.0 0.0 0.00 0.00 0.00 92 1014.9
20260904122002 63 339 0.0 0.0 0.00 0.00 0.00 92 1014.9
20260904121458 63 338 0.0 0.0 0.00 0.00 0.00 92 1014.9
20260904120954 63 341 0.0 0.0 0.00 0.00 0.00 92 1014.9
20260904120449 63 341 0.0 0.0 0.00 0.00 0.00 92 1014.9
20260904115944 63 342 0.0 0.0 0.00 0.00 0.00 92 1014.9
20260904115440 63 334 0.0 0.0 0.00 0.00 0.00 92 1015.3
20260904114934 63 340 0.0 0.0 0.00 0.00 0.00 92 1014.9
20260904114434 63 337 0.0 0.0 0.00 0.00 0.00 92 1014.9
20260904113930 63 344 0.0 0.0 0.00 0.00 0.00 92 1014.9
20260904113428 63 344 0.0 0.0 0.00 0.00 0.00 92 1015.3
20260904112928 63 342 0.0 0.0 0.00 0.00 0.00 92 1014.9
20260904112424 62 341 0.0 0.0 0.00 0.00 0.00 91 1014.9
20260904111920 62 341 0.0 0.0 0.00 0.00 0.00 91 1014.9
20260904111414 62 343 0.0 0.0 0.00 0.00 0.00 91 1014.9
20260904110911 62 344 0.0 0.0 0.00 0.00 0.00 91 1014.9
20260904110409 63 340 0.0 0.0 0.00 0.00 0.00 91 1014.9
20260904105905 63 337 0.0 0.0 0.00 0.00 0.00 91 1014.9
20260904105400 63 333 0.0 0.0 0.00 0.00 0.00 91 1014.9
20260904104855 63 330 0.0 0.0 0.00 0.00 0.00 91 1014.9
20260904104349 63 337 0.0 0.0 0.00 0.00 0.00 91 1015.3
20260904103846 63 343 0.0 1.0 0.00 0.00 0.00 91 1014.9
20260904103341 63 340 0.0 1.0 0.00 0.00 0.00 91 1014.9
20260904102837 63 339 0.0 0.0 0.00 0.00 0.00 91 1014.9
20260904102332 63 335 0.0 0.0 0.00 0.00 0.00 91 1014.9
20260904101828 63 340 0.0 0.0 0.00 0.00 0.00 91 1014.9
20260904101324 63 354 0.0 0.0 0.00 0.00 0.00 91 1014.9
20260904100820 63 344 0.0 0.0 0.00 0.00 0.00 91 1014.9
20260904100315 64 342 0.0 0.0 0.00 0.00 0.00 91 1015.3
20260904095810 64 344 0.0 1.0 0.00 0.00 0.00 91 1014.9
20260904095306 64 352 0.0 0.0 0.00 0.00 0.00 91 1014.9
20260904094800 64 348 0.0 0.0 0.00 0.00 0.00 91 1014.9
20260904094254 64 343 0.0 0.0 0.00 0.00 0.00 91 1014.9
20260904093750 64 342 0.0 0.0 0.00 0.00 0.00 91 1014.9
20260904093245 64 344 0.0 0.0 0.00 0.00 0.00 91 1014.9
20260904092740 64 340 0.0 0.0 0.00 0.00 0.00 91 1014.9
20260904092237 64 26 0.0 0.0 0.00 0.00 0.00 91 1014.9
20260904091733 64 340 0.0 0.0 0.00 0.00 0.00 91 1014.9
20260904091227 63 345 0.0 0.0 0.00 0.00 0.00 91 1014.9
20260904090723 64 343 0.0 0.0 0.00 0.00 0.00 90 1014.6
20260904090218 64 340 0.0 0.0 0.00 0.00 0.00 90 1014.9
20260904085713 64 336 0.0 1.0 0.00 0.00 0.00 90 1014.9
20260904085208 64 338 0.0 0.0 0.00 0.00 0.00 90 1014.9
20260904084703 64 336 0.0 0.0 0.00 0.00 0.00 90 1014.9
20260904084159 64 343 0.0 0.0 0.00 0.00 0.00 90 1014.9
20260904083655 64 341 0.0 0.0 0.00 0.00 0.00 90 1014.9
20260904083151 64 342 0.0 0.0 0.00 0.00 0.00 90 1014.9
20260904082646 64 344 0.0 0.0 0.00 0.00 0.00 90 1015.3
20260904082141 64 344 0.0 0.0 0.00 0.00 0.00 90 1014.9
20260904081637 64 336 0.0 0.0 0.00 0.00 0.00 90 1014.9
20260904081132 64 334 0.0 0.0 0.00 0.00 0.00 90 1014.9
20260904080627 65 343 0.0 0.0 0.00 0.00 0.00 90 1014.9
20260904080123 65 332 0.0 0.0 0.00 0.00 0.00 90 1014.9
20260904075620 65 337 0.0 0.0 0.00 0.00 0.00 90 1015.6
20260904075119 65 344 0.0 0.0 0.00 0.00 0.00 90 1015.6
20260904074618 65 344 0.0 0.0 0.00 0.00 0.00 89 1015.3
20260904074113 65 342 0.0 0.0 0.00 0.00 0.00 90 1015.3
20260904073608 65 347 0.0 0.0 0.00 0.00 0.00 90 1015.3
20260904073105 66 347 0.0 0.0 0.00 0.00 0.00 89 1015.3
20260904072600 65 350 0.0 0.0 0.00 0.00 0.00 89 1015.3
20260904072055 65 342 0.0 0.0 0.00 0.00 0.00 89 1015.3
20260904071551 65 348 0.0 0.0 0.00 0.00 0.00 89 1015.3
20260904071046 66 346 0.0 0.0 0.00 0.00 0.00 89 1015.3
20260904070544 66 350 0.0 0.0 0.00 0.00 0.00 89 1014.9
20260904070040 66 352 0.0 0.0 0.00 0.00 0.00 89 1014.9
20260904065534 66 352 0.0 0.0 0.00 0.00 0.00 89 1015.3
20260904065031 65 348 0.0 0.0 0.00 0.00 0.00 89 1015.3
20260904064527 66 344 0.0 0.0 0.00 0.00 0.00 89 1015.3
20260904064021 66 343 0.0 0.0 0.00 0.00 0.00 89 1014.9
20260904063518 66 343 0.0 0.0 0.00 0.00 0.00 89 1014.9
20260904063018 66 347 0.0 0.0 0.00 0.00 0.00 89 1014.9
20260904062514 66 346 0.0 0.0 0.00 0.00 0.00 88 1014.9
20260904062009 66 342 0.0 0.0 0.00 0.00 0.00 88 1014.9
20260904061505 66 348 0.0 0.0 0.00 0.00 0.00 88 1014.9
20260904061001 66 341 0.0 0.0 0.00 0.00 0.00 88 1014.9
20260904060457 66 345 0.0 0.0 0.00 0.00 0.00 88 1014.9
20260904055953 66 346 0.0 0.0 0.00 0.00 0.00 87 1014.9
20260904055448 66 347 0.0 0.0 0.00 0.00 0.00 87 1014.9
20260904054943 66 351 0.0 0.0 0.00 0.00 0.00 87 1014.9
20260904054439 67 343 0.0 0.0 0.00 0.00 0.00 87 1014.6
20260904053935 67 348 0.0 0.0 0.00 0.00 0.00 86 1014.9
20260904053434 67 347 0.0 0.0 0.00 0.00 0.00 86 1014.9
20260904052930 67 345 0.0 0.0 0.00 0.00 0.00 86 1014.9
20260904052426 67 339 0.0 0.0 0.00 0.00 0.00 85 1014.9
20260904051922 68 338 0.0 0.0 0.00 0.00 0.00 85 1014.9
20260904051418 68 340 0.0 0.0 0.00 0.00 0.00 85 1014.9
20260904050912 68 327 0.0 1.0 0.00 0.00 0.00 84 1015.3
20260904050409 68 328 0.0 1.0 0.00 0.00 0.00 84 1014.9
20260904045908 68 329 0.0 0.0 0.00 0.00 0.00 83 1014.9
20260904045404 68 333 0.0 0.0 0.00 0.00 0.00 83 1014.9
20260904044903 68 334 1.0 1.0 0.00 0.00 0.00 83 1014.9
20260904044400 68 334 0.0 1.0 0.00 0.00 0.00 82 1014.9
20260904043856 68 343 0.0 0.0 0.00 0.00 0.00 82 1014.9
20260904043352 68 339 0.0 1.0 0.00 0.00 0.00 81 1014.9
20260904042847 68 310 0.0 1.0 0.00 0.00 0.00 81 1014.9
20260904042343 68 331 0.0 1.0 0.00 0.00 0.00 81 1014.9
20260904041837 68 342 0.0 1.0 0.00 0.00 0.00 81 1014.9
20260904041334 68 340 0.0 1.0 0.00 0.00 0.00 81 1014.9
20260904040830 68 338 1.0 3.0 0.00 0.00 0.00 81 1014.6
20260904040325 68 300 1.0 1.0 0.00 0.00 0.00 81 1014.9
20260904035821 68 286 1.0 2.0 0.00 0.00 0.00 82 1014.9
20260904035317 68 284 1.0 2.0 0.00 0.00 0.00 83 1014.9
20260904034815 68 343 0.0 1.0 0.00 0.00 0.00 83 1014.6
20260904034311 68 339 0.0 1.0 0.00 0.00 0.00 83 1014.9
20260904033807 68 340 0.0 1.0 0.00 0.00 0.00 83 1014.6
20260904033303 68 271 1.0 1.0 0.00 0.00 0.00 83 1014.6
20260904032759 69 297 1.0 2.0 0.00 0.00 0.00 83 1014.6
20260904032258 69 319 0.0 1.0 0.00 0.00 0.00 83 1014.3
20260904031753 69 271 2.0 3.0 0.00 0.00 0.00 83 1014.6
20260904031248 69 231 2.0 3.0 0.00 0.00 0.00 83 1014.6
20260904030744 69 273 2.0 3.0 0.00 0.00 0.00 83 1014.3
20260904030239 69 295 2.0 3.0 0.00 0.00 0.00 83 1014.3
20260904025736 69 292 1.0 2.0 0.00 0.00 0.00 83 1014.3
20260904025230 69 311 1.0 2.0 0.00 0.00 0.00 82 1014.3
20260904024721 69 289 2.0 3.0 0.00 0.00 0.00 82 1014.3
20260904024215 69 265 2.0 3.0 0.00 0.00 0.00 82 1014.3
20260904023711 69 295 2.0 4.0 0.00 0.00 0.00 82 1014.3
20260904023208 69 324 1.0 2.0 0.00 0.00 0.00 82 1014.3
20260904022707 69 275 2.0 3.0 0.00 0.00 0.00 82 1014.3
20260904022204 69 277 3.0 3.0 0.00 0.00 0.00 82 1014.3
20260904021700 69 313 1.0 4.0 0.00 0.00 0.00 82 1013.9
20260904021154 70 252 1.0 3.0 0.00 0.00 0.00 82 1014.3
20260904020651 70 342 1.0 2.0 0.00 0.00 0.00 82 1014.3
20260904020144 70 330 1.0 3.0 0.00 0.00 0.00 81 1014.3
20260904015644 70 328 0.0 2.0 0.00 0.00 0.00 81 1014.3
20260904015143 71 323 0.0 4.0 0.00 0.00 0.00 81 1014.3
20260904014642 71 342 2.0 3.0 0.00 0.00 0.00 80 1014.3
20260904014138 71 305 2.0 4.0 0.00 0.00 0.00 79 1014.3
20260904013634 72 261 3.0 4.0 0.00 0.00 0.00 78 1014.3
20260904013130 72 10 2.0 6.0 0.00 0.00 0.00 78 1014.3
20260904012626 72 285 1.0 6.0 0.00 0.00 0.00 77 1014.3
20260904012124 72 311 1.0 2.0 0.00 0.00 0.00 77 1014.3
20260904011623 72 261 2.0 4.0 0.00 0.00 0.00 77 1014.3
20260904011119 72 325 2.0 4.0 0.00 0.00 0.00 76 1014.3
20260904010615 72 278 2.0 4.0 0.00 0.00 0.00 78 1014.3
20260904010111 72 325 2.0 2.0 0.00 0.00 0.00 78 1014.3
20260904005606 72 237 2.0 6.0 0.00 0.00 0.00 76 1014.6
20260904005101 73 254 4.0 6.0 0.00 0.00 0.00 74 1014.3
20260904004557 73 217 2.0 7.0 0.00 0.00 0.00 74 1014.3
20260904004051 73 195 1.0 6.0 0.00 0.00 0.00 73 1014.6
20260904003548 73 214 1.0 6.0 0.00 0.00 0.00 75 1014.3
20260904003043 73 253 5.0 7.0 0.00 0.00 0.00 74 1014.3
20260904002539 73 292 3.0 6.0 0.00 0.00 0.00 75 1014.3
20260904002038 74 306 5.0 7.0 0.00 0.00 0.00 72 1014.6
20260904001535 74 317 1.0 4.0 0.00 0.00 0.00 71 1014.6
20260904001033 75 215 3.0 3.0 0.00 0.00 0.00 70 1014.6
20260904000533 75 218 3.0 6.0 0.00 0.00 0.00 70 1014.6
20260904000029 76 246 3.0 4.0 0.00 0.00 0.00 68 1014.6
20260903235524 75 268 3.0 6.0 0.00 0.00 0.00 72 1014.6
20260903235019 75 284 3.0 6.0 0.00 0.00 0.00 70 1014.6
20260903234515 75 255 5.0 7.0 0.00 0.00 0.00 71 1014.6
20260903234010 76 263 3.0 6.0 0.00 0.00 0.00 70 1014.9
20260903233506 76 341 0.0 2.0 0.00 0.00 0.00 71 1014.9
20260903233001 75 313 3.0 7.0 0.00 0.00 0.00 72 1014.9
20260903232457 76 225 3.0 6.0 0.00 0.00 0.00 71 1014.9
20260903231956 76 217 6.0 7.0 0.00 0.00 0.00 69 1014.9
20260903231451 76 246 3.0 6.0 0.00 0.00 0.00 70 1014.9
20260903230945 77 224 4.0 6.0 0.00 0.00 0.00 69 1014.9
20260903230442 75 238 2.0 6.0 0.00 0.00 0.00 71 1014.9
20260903225938 77 265 3.0 6.0 0.00 0.00 0.00 68 1015.3
20260903225433 76 246 3.0 8.0 0.00 0.00 0.00 70 1014.9
20260903224929 76 335 3.0 7.0 0.00 0.00 0.00 70 1014.9
20260903224425 76 203 4.0 7.0 0.00 0.00 0.00 71 1015.3
20260903223921 77 315 1.0 6.0 0.00 0.00 0.00 70 1015.3
20260903223420 77 199 4.0 6.0 0.00 0.00 0.00 68 1015.3
20260903222919 77 287 1.0 4.0 0.00 0.00 0.00 69 1015.3
20260903222415 77 325 2.0 4.0 0.00 0.00 0.00 69 1015.6
20260903221915 77 328 1.0 6.0 0.00 0.00 0.00 68 1015.3
20260903221414 76 200 2.0 6.0 0.00 0.00 0.00 70 1015.3
20260903220912 76 259 3.0 4.0 0.00 0.00 0.00 69 1015.6
20260903220406 76 218 4.0 7.0 0.00 0.00 0.00 70 1015.6
20260903215904 77 209 4.0 7.0 0.00 0.00 0.00 69 1016.0
20260903215401 77 221 3.0 7.0 0.00 0.00 0.00 69 1015.6
20260903214859 77 257 1.0 4.0 0.00 0.00 0.00 70 1015.6
20260903214355 77 347 2.0 4.0 0.00 0.00 0.00 69 1016.0
20260903213854 76 270 3.0 7.0 0.00 0.00 0.00 71 1015.6
20260903213349 76 267 5.0 7.0 0.00 0.00 0.00 70 1016.0
20260903212846 77 322 3.0 6.0 0.00 0.00 0.00 69 1015.6
20260903212342 76 234 4.0 9.0 0.00 0.00 0.00 70 1016.0
20260903211841 76 295 3.0 7.0 0.00 0.00 0.00 69 1016.0
20260903211337 76 262 1.0 7.0 0.00 0.00 0.00 70 1015.6
20260903210833 76 342 4.0 8.0 0.00 0.00 0.00 69 1015.6
20260903210327 76 318 4.0 8.0 0.00 0.00 0.00 69 1015.6